User: anonymous   Login
Location: Caltech
(34.1382°N, 118.1253°W)
Time: 23:51:00
(UTC-07:00)
Language:

Cosmos 1937 Rocket - Orbit

View from above orbital plane
View from above orbital plane
View from above satellite
View from above satellite

Ground track
Ground track

The orbit data is extracted from the following two-line orbital elements,

1 19039U 88029B   16205.54658140  .00000088  00000-0  37404-4 0  9994
2 19039  74.0467 184.5930 0022478  78.6948  58.6192 14.38324284483608
Epoch (UTC): 23 July 2016 13:07:04
Eccentricity: 0.0022478
inclination: 74.0467°
perigee height: 748 km
apogee height: 780 km
right ascension of ascending node: 184.5930°
argument of perigee: 78.6948°
revolutions per day: 14.38324284
mean anomaly at epoch: 58.6192°
orbit number at epoch: 48360

The dashed part of the orbit path shows where the satellite is in the earth's shadow,  

DLR